Regional Weather Roundup
Issued by NWS

Home | Current Version | Previous Version | Graphics & Text | Print | Product List | Glossary Off
Versions: 1 2 3 4 5 6 7 8 9 10 11 12 13 14 15 16 17 18 19 20 21 22 23 24 25 26 27 28 29 30 31 32 33 34 35 36 37 38 39 40 41 42 43 44 45 46 47 48 49 50

894
ASUS43 KMKX 202211
RWRWI

WISCONSIN REGIONAL WEATHER ROUNDUP
NATIONAL WEATHER SERVICE MILWAUKEE/SULLIVAN WI
500 PM CDT THU JUL 20 2017

NOTE: "FAIR" INDICATES FEW OR NO CLOUDS BELOW 12,000 FEET WITH NO
SIGNIFICANT WEATHER AND/OR OBSTRUCTIONS TO VISIBILITY.

WIZ001-002-006>008-014>016-023>028-202300-
NORTHWEST WISCONSIN

CITY           SKY/WX    TMP DP  RH WIND       PRES   REMARKS
SUPERIOR ARPT  NOT AVBL
ASHLAND        SUNNY     84  64  50 W6        29.97F HX  85
HAYWARD        SUNNY     84  58  40 VRB6      30.00F HX  83
SIREN          SUNNY     85  60  43 W6        30.01S HX  85
CUMBERLAND     SUNNY     81  63  54 W10       30.01F HX  82
RICE LAKE      SUNNY     85  63  47 W7        30.02S HX  85
CHETEK         SUNNY     84  68  58 W7        30.01S HX  87
LADYSMITH      SUNNY     85  62  45 W10       30.02S HX  86
EAU CLAIRE     SUNNY     85  66  53 W8        29.99F HX  87
MENOMONIE      MOSUNNY   85  66  53 W8        30.00F HX  87
NEW RICHMOND   SUNNY     84  64  50 W7        30.02F HX  85
OSCEOLA        SUNNY     85  65  50 W9        30.04S HX  87
$$

WIZ003>005-009-010-017-018-202300-
NORTH CENTRAL WISCONSIN

CITY           SKY/WX    TMP DP  RH WIND       PRES   REMARKS
MANITOWISH WTR SUNNY     82  57  42 NW8       29.99F HX  82
ARBOR VITAE    SUNNY     83  54  35 NW6G16    29.99S HX  82
WOODRUFF       SUNNY     83  54  35 NW6G16    29.99S HX  82
RHINELANDER    SUNNY     86  62  44 NW7       29.99F HX  86
EAGLE RIVER    SUNNY     83  50  31 NW10      29.98F HX  81
LAND O LAKES   SUNNY     83  51  32 NW8       30.00F HX  81
PHILLIPS       SUNNY     83  62  50 W6        29.99F HX  84
TOMAHAWK         N/A     83  58  43 NW5G16    30.00S HX  83
MEDFORD        SUNNY     82  62  51 W7        30.00F HX  83
MERRILL        SUNNY     84  63  47 NW7       29.99F HX  85
$$

WIZ029-030-035-036-043>047-202300-
CENTRAL WISCONSIN

CITY           SKY/WX    TMP DP  RH WIND       PRES   REMARKS
WAUSAU         SUNNY     85  62  46 W13       29.96F HX  85
MOSINEE        MOSUNNY   84  64  51 W13       30.00S HX  86
MARSHFIELD     SUNNY     84  63  49 W10       29.99F HX  85
STEVENS POINT  SUNNY     84  63  50 NW8       29.98F HX  85
WAUPACA        MOSUNNY   88  62  41 W9        29.96S HX  88
WAUTOMA        PTSUNNY   84  70  62 NW8       29.97  HX  88
WISC RAPIDS    MOSUNNY   87  64  46 NW13      29.99S HX  88
CAMP DOUGLAS   MOSUNNY   81  72  73 NW6       29.99S HX  86
$$

WIZ011>013-019>022-031-037>040-048>050-202300-
NORTHEAST WISCONSIN

CITY           SKY/WX    TMP DP  RH WIND       PRES   REMARKS
ANTIGO         SUNNY     83  62  49 NW8       29.99S HX  84
SHAWANO        SUNNY     89  58  35 NW12      29.94S HX  88
OCONTO         SUNNY     86  64  47 NW6       29.92S HX  87
STURGEON BAY     N/A     83  67  58 N5        29.93F HX  85
GREEN BAY      SUNNY     87  70  56 NW12      29.93F HX  92
MANITOWOC      MOSUNNY   85  67  54 W7        29.94F HX  87
APPLETON       MOSUNNY   84  61  45 NW12      29.94F HX  84
CLINTONVILLE   SUNNY     86  59  39 NW10      29.95R HX  85
OSHKOSH        CLOUDY    82  67  60 NW9       29.95S HX  84
$$

WIZ032>034-041-042-053>061-202300-
SOUTHWEST WISCONSIN

CITY           SKY/WX    TMP DP  RH WIND       PRES   REMARKS
LA CROSSE      PTSUNNY   86  72  62 NW9       29.98S HX  92
SPARTA         MOSUNNY   81  71  71 N6        30.00F HX  84
VIROQUA        PTSUNNY   81  73  78 N7        30.01S HX  86
BOSCOBEL       MOSUNNY   89  71  55 N5        29.97S HX  95
PRAIRIE DU CHI SUNNY     85  70  60 W5        29.97S HX  90
PLATTEVILLE    SUNNY     85  76  73 N3        29.99F HX  94
$$

WIZ056-057-062-063-064-067-068-202300-
SOUTH CENTRAL WISCONSIN

CITY           SKY/WX    TMP DP  RH WIND       PRES   REMARKS
REEDSBURG      SUNNY     83  68  60 N7        29.97S HX  86
BARABOO/DELLS    N/A     84  66  54 NW5       29.97S HX  86
LONE ROCK      SUNNY     86  72  62 NW5       29.96S HX  92
MINERAL POINT  SUNNY     86  73  66 N5        29.99S HX  93
MADISON        CLOUDY    87  73  62 N7        29.96S HX  94
MIDDLETON      CLOUDY    87  71  58 N7        29.98R HX  93
WATERTOWN      MOSUNNY   84  74  70 N5        29.96S HX  91
MONROE         MOSUNNY   84  72  65 N3        29.98S HX  89
JANESVILLE     PTSUNNY   86  73  66 NW6       29.96S HX  93
$$

WIZ051-052-058>065-066-070>072-202300-
SOUTHEAST WISCONSIN

CITY           SKY/WX    TMP DP  RH WIND       PRES   REMARKS
MILWAUKEE      PTSUNNY   77  70  79 SE9       29.95F
WAUKESHA       MOSUNNY   82  70  65 NW7       29.97F HX  86
MILWAUKEE/TIMM MOSUNNY   84  66  54 SE6       29.96F HX  86
RACINE         SUNNY     77  69  76 SE7       29.98F
KENOSHA        SUNNY     80  70  71 E7        29.97S HX  83
FOND DU LAC    MOSUNNY   86  67  52 NW10      29.95F HX  89
SHEBOYGAN      MOSUNNY   85  72  65 NW10      29.94F HX  91
WEST BEND      SUNNY     82  70  65 NW8       29.96S HX  86
JUNEAU         SUNNY     84  70  64 NW7       29.97S HX  88
$$

LSZ147-162-202300-
LAKE SUPERIOR

STATION/POSITION TIME  TEMP    WIND        PRES    WAVE
                       AIR SEA DIR/SP/G            HT/PER
                 (UTC) (F)     (DEG/KT/KT) (MB)    (FT/S)
W MID LAKE BUOY  2150   54 48  230/  8/  8 1013.8F   1/ 3
DEVILS ISLAND    2200   72     230/ 11/ 14 1013.6F
PORT WING        2100   81     260/  7/ 11   N/A
SAXON HARBOR     2140   85      60/  2/  3 1014.2F
$$

LMZ867-665-643>646-202300-
LAKE MICHIGAN

STATION/POSITION TIME  TEMP    WIND        PRES    WAVE
                       AIR SEA DIR/SP/G            HT/PER
                 (UTC) (F)     (DEG/KT/KT) (MB)    (FT/S)
CHAMBERS ISLAND  2140   86     220/  1/  5 1012.5S
S GREEN BAY BUOY 2200   81 74   10/  2/  4 1013.2
N MID LAKE BUOY  2150   69 66  190/ 10/ 10 1013.2F   2/ 6
NORTHPORT PIER   2140   86     280/  2/  5 1012.5F
KEWAUNEE LAKESHO 2142   71     170/  7/  7 1013.2F
SHEBOYGAN LAKESH 2200   70     160/ 16/ 17 1013.3S
PORT WASHINGTON  2140   76     190/  8/ 10 1015.2F
ATWATER BUOY     2109   70 69  170/  8/ 10 1014.8F
MILWAUKEE LAKESH 2150   70     130/  5/  5   N/A
S MID LAKE BUOY  2150   72 72  110/  4/  4 1014.5F   2/ 5
KENOSHA   LAKESH 2200   79     170/  4/  6 1014.2
$$

TC  - TEMPERATURE IN CELSIUS
VSB - VISIBILITY IN STATUTE MILES
WCI - WIND CHILL INDEX
HX  - HEAT INDEX





USA.gov is the U.S. government's official web portal to all federal, state and local government web resources and services.